{"data":{"norad_id":64618,"intl_designator":"2025-137AA","name":"STARLINK-34415","alt_names":[],"object_type":"PAYLOAD","status":"ACTIVE","operator":null,"country":"US","launch_date":"2025-06-25","launch_site_code":"AFETR","launch_vehicle":null,"mission":null,"orbit_class":"UNKNOWN","rcs_meters":null,"size_class":null,"mass_kg":null,"dimensions":null,"purposes":["comms"],"wikipedia_slug":null,"has_3d_model":false,"image_url":null,"decayed_at":null,"tle_current":{"epoch":"2026-09-20T01:31:13.066752Z","epoch_age_seconds":169355,"freshness":"FRESH","line1":"1 64618U 25137AA  26263.06334568  .00025110  00000+0  75153-3 0  9999","line2":"2 64618  53.1566 149.6015 0001140  90.1288 269.9845 15.34411622 70530","mean_motion":15.34411622,"eccentricity":0.000114,"inclination_deg":53.1566,"raan_deg":149.6015,"arg_perigee_deg":90.1288,"mean_anomaly_deg":269.9845,"bstar":0.00075153,"rev_number":7053,"period_min":93.847047256007,"perigee_km":461.88884554241,"apogee_km":463.44854924141,"semimajor_km":6840.8056973919,"source":"CELESTRAK","updated_at":"2026-09-21T09:00:35.396121Z"}}}